COSMOS 2569 (703K)

Last updated on Sun Sep 14 2025 00:02:36 GMT+0000 (Coordinated Universal Time)

1 57517U 23114A 25255.92267663 .00000026 00000+0 00000+0 0 9992 2 57517 65.1431 81.9814 0008595 293.2212 66.7377 2.13103747 16355
UTC large
Height (km)
Speed (km/s)
/
Latitude / Longitude
Inclination (degrees)
Orbital Period (minutes)
Azimuth
Elevation
Range (km)
Doppler Factor

Next 0 passes for location: London (51.5072 / 0.1276)

Sorry there are no passes over London.